STARLINK-4147 (53256 NORAD) Tracking and Keplerian Element Data

This shows tracking and keplerian element data for the satellite.

Feedback or suggestion? Click here.




ElementValue
Catalog53256
NameSTARLINK-4147
Epoch Orbit130
Epoch Day269.91667824
Epoch Year2022
RAAN89.6498
Inclination53.2173
Eccentricity0.0001485
Argument of Perigee65.2997
Mean Anonmoly72.2543
Mean Motion15.1945119
Decay Rate-0.01053675
L11 53256U 22086Q 22269.91667824 -.01053675 00000+0 -53594-1 0 9998
L22 53256 53.2173 89.6498 0001485 65.2997 72.2543 15.19451190 1307

Live tracking and technical data element details for STARLINK-4147 (NORAD 53256). STARLINK-4147 can be tracked NOW for your location showing map with azimuth and elevation plus other details from your city location.

Track the satellite on the map from your city or location and see movement details for azimuth, elevation, latitude, longitude, range, height, and movement on the map or in text.







IsCatalogInMostPopularTable: catalog: 53256, numindb: 3
Update: records affected: 1



GetName: 53256 STARLINK-4147

Hit Count: updated at: Wed, 28 Sep 2022 22:09:25 GMT